Home   Weather   Oberlin   Past weeks

Flag for USA Past Weather in Oberlin, Ohio, USA — Yesterday and Last 2 Weeks

Now
64 °F

Scattered clouds.


Feels Like: 64 °F
Forecast: 53 / 71 °F
Wind: No wind

Location: Lorain County Regional Airport

Current Time: Jun 26, 2017 at 8:18:25 pm

Latest Report: Jun 26, 2017 at 6:53 pm


Visibility: 10 mi

Pressure: 30.00 "Hg

Humidity: 49%

Dew Point: 44 °F

Location of OberlinLocation

Past Weather in Oberlin — Graph

°F

Oberlin Temperature Yesterday

Maximum temperature yesterday: 71 °F (at 10:53 am)
Minimum temperature yesterday: 56 °F (at 5:53 am)
Average temperature yesterday: 65 °F

High & Low Weather Summary for the Past Weeks

 TemperatureHumidityPressure
High91 °F (Jun 12, 4:53 pm)88% (Jun 23, 10:53 am)30.08 "Hg (Jun 23, 10:53 am)
Low54 °F (Jun 26, 4:53 am)31% (Jun 11, 6:53 pm)29.58 "Hg (Jun 18, 5:53 am)
Average72 °F62%29.88 "Hg
* Reported Jun 11 6:53 pm — Jun 26 6:53 pm, Oberlin. Weather by CustomWeather, © 2017

Note: Actual official high and low records may vary slightly from our data, if they occured in-between our weather recording intervals... More about our weather records

Advertising

Oberlin Weather History for the Previous 24 Hours

Scroll right to see more
 ConditionsComfort  
Time TempWeatherWind HumidityBarometerVisibility
6:53 pm
Mon, Jun 26
64 °FScattered clouds.No wind49%30.00 "Hg10 mi
5:53 pm69 °FScattered clouds.14 mph38%30.00 "Hg10 mi
4:53 pm69 °FMore clouds than sun.14 mph39%30.01 "Hg10 mi
3:53 pm69 °FMostly cloudy.9 mph41%30.03 "Hg10 mi
2:53 pm70 °FScattered clouds.13 mph38%30.03 "Hg10 mi
1:53 pm68 °FPartly sunny.9 mph44%30.05 "Hg10 mi
12:53 pm65 °FMostly cloudy.13 mph52%30.06 "Hg10 mi
11:53 am67 °FBroken clouds.9 mph53%30.06 "Hg10 mi
10:53 am66 °FScattered clouds.14 mph52%30.06 "Hg10 mi
9:53 am64 °FSunny.14 mph61%30.06 "Hg10 mi
8:53 am62 °FSunny.8 mph62%30.06 "Hg10 mi
7:53 am59 °FPassing clouds.9 mph64%30.06 "Hg10 mi
6:53 am55 °FSunny.7 mph69%30.05 "Hg10 mi
5:53 am54 °FClear.7 mph72%30.05 "Hg10 mi
4:53 am54 °FClear.7 mph72%30.04 "Hg10 mi
3:53 am55 °FPassing clouds.6 mph72%30.04 "Hg10 mi
2:53 am56 °FPartly cloudy.6 mph70%30.04 "Hg10 mi
1:53 am56 °FPassing clouds.6 mph70%30.05 "Hg10 mi
12:53 am56 °FClear.6 mph67%30.06 "Hg10 mi
11:53 pm
Sun, Jun 25
58 °FPassing clouds.8 mph62%30.06 "Hg10 mi
10:53 pm59 °FClear.7 mph60%30.06 "Hg10 mi
9:53 pm60 °FClear.8 mph58%30.06 "Hg10 mi
8:53 pm66 °FSunny.7 mph40%30.05 "Hg10 mi
Weather by CustomWeather, © 2017

See weather overviewHow to use our weather pages